Weather History for PANC - June, 2013

Change the Weather History Date:

Thursday, June 20, 2013

  Actual Average Record
Temperature  
Mean Temperature 60 °F 56 °F  
Max Temperature 71 °F 64 °F 82 °F (1926)
Min Temperature 48 °F 49 °F 33 °F (1951)
Degree Days  
Heating Degree Days 5    
Month to date heating degree days 128  
Since 1 June heating degree days 128  
Since 1 July heating degree days 10487  
Cooling Degree Days 0    
Month to date cooling degree days 7  
Year to date cooling degree days 7  
Since 1 June cooling degree days 7  
Growing Degree Days 8 (Base 50)    
Moisture  
Dew Point 48 °F    
Average Humidity 71    
Maximum Humidity 86    
Minimum Humidity 55    
Precipitation  
Precipitation 0.00 in 0.03 in 0.50 in (1999)
Month to date precipitation 0.46 0.61  
Year to date precipitation 6.84 3.85  
Snow  
Snow 0.00 in 0.00 in 0.00 in ()
Month to date snowfall 0.0 0.0  
Since 1 June snowfall 0.0  
Since 1 July snowfall 94.0 74.5  
Snow Depth 0.00 in    
Sea Level Pressure  
Sea Level Pressure 29.99 in    
Wind  
Wind Speed 3 mph (West)    
Max Wind Speed 10 mph    
Max Gust Speed 22 mph    
Visibility 10 miles    
Events      
T = Trace of Precipitation, MM = Missing Value Source: NWS Daily Summary

Daily Weather History Graph

Daily Weather History Graph

Search for Another Location

Airport or City:

Trip Planner

Search our weather history database for the weather conditions in past years. The results will help you decide how hot, cold, wet, or windy it might be!

Date:

Astronomy

Jun. 20, 2013 Rise Set
Actual Time 4:21 AM AKDT 11:42 PM AKDT
Civil Twilight 2:34 AM AKDT 1:29 AM AKDT
Nautical Twilight Sun does not rise Sun does not rise
Astronomical Twilight Sun does not rise Sun does not rise
Moon 8:16 PM AKDT (6/20) 2:48 AM AKDT (6/20)
Length of Visible Light 22h 55m
Length of Day
19h 21m
Waxing Gibbous, 90% of the Moon is Illuminated
Jun 20
Waxing Gibbous
Jun 23
Full
Jun 29
Last Quarter
Jul 7
New
Jul 15
First Quarter

Hourly Weather History & Observations

Time (AKDT) Temp. Dew Point Humidity Pressure Visibility Wind Dir Wind Speed Gust Speed Precip Events Conditions
12:53 AM 60.1 °F 44.1 °F 55% 29.98 in 10.0 mi SW 6.9 mph - N/A   Scattered Clouds
1:53 AM 55.9 °F 44.1 °F 64% 30.01 in 10.0 mi Calm Calm - N/A   Scattered Clouds
2:53 AM 52.0 °F 45.0 °F 77% 30.01 in 10.0 mi Calm Calm - N/A   Scattered Clouds
3:53 AM 53.1 °F 46.9 °F 80% 30.00 in 10.0 mi Calm Calm - N/A   Scattered Clouds
4:53 AM 50.0 °F 46.0 °F 86% 29.99 in 10.0 mi Calm Calm - N/A   Clear
5:53 AM 53.1 °F 46.9 °F 80% 29.99 in 10.0 mi Calm Calm - N/A   Partly Cloudy
6:53 AM 55.9 °F 48.9 °F 77% 29.99 in 10.0 mi Calm Calm - N/A   Scattered Clouds
7:53 AM 57.0 °F 48.0 °F 72% 30.00 in 10.0 mi SW 4.6 mph - N/A   Scattered Clouds
8:53 AM 59.0 °F 46.9 °F 64% 30.00 in 10.0 mi Variable 3.5 mph - N/A   Scattered Clouds
9:53 AM 63.0 °F 48.0 °F 58% 30.00 in 10.0 mi Calm Calm - N/A   Mostly Cloudy
10:53 AM 62.1 °F 50.0 °F 65% 29.99 in 10.0 mi WNW 4.6 mph - N/A   Mostly Cloudy
11:53 AM 64.0 °F 50.0 °F 60% 29.98 in 10.0 mi WNW 4.6 mph - N/A   Mostly Cloudy
12:53 PM 64.9 °F 50.0 °F 58% 29.98 in 10.0 mi WNW 6.9 mph - N/A   Mostly Cloudy
1:53 PM 66.9 °F 50.0 °F 54% 29.97 in 10.0 mi WNW 10.4 mph - N/A   Mostly Cloudy
2:53 PM 66.0 °F 48.9 °F 54% 29.97 in 10.0 mi West 9.2 mph - N/A   Mostly Cloudy
3:53 PM 63.0 °F 48.0 °F 58% 29.97 in 10.0 mi WSW 10.4 mph - N/A   Mostly Cloudy
4:53 PM 62.1 °F 46.9 °F 58% 29.97 in 10.0 mi WSW 11.5 mph - N/A   Mostly Cloudy
5:53 PM 61.0 °F 46.9 °F 60% 29.99 in 10.0 mi WSW 12.7 mph 21.9 mph N/A   Mostly Cloudy
6:53 PM 61.0 °F 48.0 °F 62% 29.98 in 10.0 mi WSW 10.4 mph - N/A   Mostly Cloudy
7:53 PM 60.1 °F 48.0 °F 64% 29.99 in 10.0 mi WSW 11.5 mph - N/A   Mostly Cloudy
8:53 PM 59.0 °F 48.9 °F 69% 29.99 in 10.0 mi WSW 12.7 mph 20.7 mph N/A   Mostly Cloudy
9:53 PM 55.9 °F 48.0 °F 75% 30.00 in 10.0 mi West 6.9 mph - N/A   Mostly Cloudy
10:53 PM 55.0 °F 46.9 °F 74% 30.02 in 10.0 mi West 5.8 mph - N/A   Mostly Cloudy
11:53 PM 53.1 °F 46.9 °F 80% 30.03 in 10.0 mi WSW 3.5 mph - N/A   Mostly Cloudy